Terminal Aerodrome Forecast
Issued by NWS

Home | Current Version | Previous Version | Text Only | Print | Product List | Glossary On
Versions: 1 2 3 4 5 6 7 8 9 10 11 12 13 14 15 16 17 18 19 20 21 22 23 24 25 26 27 28 29
972
FTAK31 PAFA 121120
TAFATA
TAF
PATA 121120Z 1212/1312 03005KT P6SM FEW070 OVC100
     FM121600 03005KT P6SM BKN100
     FM121900 03005KT P6SM SCT100 BKN250=

USA.gov is the U.S. government's official web portal to all federal, state and local government web resources and services.